Orbital Elements at Epoch 2459200.5 (2020-Dec-17.0) TDB
Reference: JPL 19 (heliocentric ecliptic J2000)
Element | Value | Uncertainty (1-sigma) | Units |
e | .1617158596957086 | 5.5693e-08 | |
a | 2.365422541511926 | 1.4433e-08 | au |
q | 1.982896201667717 | 1.3002e-07 | au |
i | 2.118230918001652 | 5.7689e-06 | deg |
node | 201.8510193175193 | 0.00015341 | deg |
peri | 349.0413380573025 | 0.00015425 | deg |
M | 271.0396547010858 | 1.7515e-05 | deg |
tp | 2459528.863958673337 (2021-Nov-10.36395867) | 6.5926e-05 | TDB |
period | 1328.805826070061 3.64 | 1.2162e-05 3.33e-08 | d yr |
n | .2709199440107055 | 2.4796e-09 | deg/d |
Q | 2.747948881356135 | 1.6767e-08 | au |
|
| | Orbit Determination Parameters
Additional Information
|